This demonstration page uses our WeatherBlox Daily Observations layout. Learn more.

Left ArrowRight Arrow

39.29038, -76.61219

Hourly Observations for February 9, 2021

Temp ( °F °C ) Dew Point ( °F °C ) Humidity (%) Winds ( mph kmh ) Pressure ( in mb ) Visibility ( mi km ) Precip ( " mm )
12:54 am 00:54 Mostly Cloudy 27 -2.8 18 -7.8 69 69 N N/A 30.35 1028 10 16 N/A
1:54 am 01:54 Cloudy 28 -2.2 21 -6.1 75 75 N N/A 30.34 1027 10 16 N/A
2:54 am 02:54 Cloudy 29 -1.7 21 -6.1 72 72 ESE 5 7 30.31 1026 10 16 N/A
3:54 am 03:54 Cloudy 30 -1.1 22 -5.6 72 72 ENE 5 7 30.28 1025 10 16 N/A
4:54 am 04:54 Cloudy 30 -1.1 23 -5 75 75 E 3 6 30.27 1025 10 16 N/A
5:54 am 05:54 Cloudy 31 -0.6 24 -4.4 76 76 E 5 7 30.24 1024 10 16 N/A
6:54 am 06:54 Cloudy 32 undefined 25 -3.9 75 75 N 3 6 30.24 1024 10 16 N/A
7:54 am 07:54 Cloudy 32 undefined 25 -3.9 75 75 E 3 6 30.23 1024 10 16 N/A
8:54 am 08:54 Cloudy 34 1.1 26 -3.3 73 73 ESE 5 7 30.22 1023 10 16 N/A
9:54 am 09:54 Cloudy 37 2.8 28 -2.2 70 70 SE 5 7 30.18 1022 10 16 N/A
10:18 am 10:18 Mostly Cloudy 40 4.4 29 -1.7 65 65 N N/A 30.19 1022 10 16 N/A
10:54 am 10:54 Mostly Cloudy 44 6.7 31 -0.6 60 60 SSW 3 6 30.16 1021 10 16 N/A
11:54 am 11:54 Mostly Cloudy 47 8.3 32 undefined 56 56 W 6 9 30.11 1020 10 16 N/A
12:54 pm 12:54 Mostly Cloudy 49 9.4 32 undefined 52 52 WNW 10 17 30.09 1019 10 16 N/A
1:54 pm 13:54 Partly Cloudy 49 9.4 31 -0.6 50 50 VRB 5 7 30.07 1018 10 16 N/A
2:54 pm 14:54 Mostly Cloudy 50 10 30 -1.1 46 46 W 12 19 30.08 1019 10 16 N/A
3:54 pm 15:54 Mostly Cloudy 48 8.9 29 -1.7 48 48 NW 7 11 30.09 1019 10 16 N/A
4:54 pm 16:54 Mostly Cloudy 44 6.7 28 -2.2 53 53 N 7 11 30.12 1020 10 16 N/A
5:54 pm 17:54 Mostly Cloudy 42 5.6 28 -2.2 58 58 N 5 7 30.15 1021 10 16 N/A
6:54 pm 18:54 Mostly Cloudy 40 4.4 26 -3.3 58 58 NNW 5 7 30.18 1022 10 16 N/A
7:54 pm 19:54 Cloudy 39 3.9 25 -3.9 57 57 N 8 13 30.19 1023 10 16 N/A
8:54 pm 20:54 Cloudy 39 3.9 25 -3.9 57 57 N 8 13 30.21 1023 10 16 N/A
9:54 pm 21:54 Cloudy 39 3.9 25 -3.9 57 57 N 6 9 30.22 1024 10 16 N/A
10:54 pm 22:54 Cloudy 39 3.9 25 -3.9 57 57 NNW 5 7 30.23 1024 10 16 N/A
11:54 pm 23:54 Partly Cloudy 37 2.8 24 -4.4 59 59 N N/A 30.24 1024 10 16 N/A

Powered by AerisWeather